Regional Weather Roundup
Issued by NWS

Home | Current Version | Previous Version | Text Only | Print | Product List | Glossary Off
Versions: 1 2 3 4 5 6 7 8 9 10 11 12 13 14 15 16 17 18 19 20 21 22 23 24 25 26 27 28 29 30 31 32 33 34 35 36 37 38 39 40 41 42 43 44 45 46 47 48 49 50

000
ASUS43 KLOT 191308
RWRIL

ILLINOIS REGIONAL WEATHER ROUNDUP
NATIONAL WEATHER SERVICE CHICAGO/ROMEOVILLE IL
800 AM CDT THU OCT 19 2017

NOTE: "FAIR" INDICATES FEW OR NO CLOUDS BELOW 12,000 FEET WITH NO
SIGNIFICANT WEATHER AND/OR OBSTRUCTIONS TO VISIBILITY.

* THESE STATIONS ARE NOT UNDER NWS QUALITY CONTROL. THEY ALSO MAY NOT
  REPORT WEATHER SUCH AS PRECIPITATION OR FOG.

ILZ001-002-007-009-015-016-024-191400-
NORTHWEST ILLINOIS

CITY           SKY/WX    TMP DP  RH WIND       PRES   REMARKS
MOLINE         CLOUDY    44  42  93 CALM      30.13R
STERLING*      CLOUDY    43  42  97 CALM        N/A
SAVANNA*       CLOUDY    42  42  99 CALM      30.14R
$$

ILZ003-004-008-010-011-017-018-191400-
NORTH CENTRAL ILLINOIS

CITY           SKY/WX    TMP DP  RH WIND       PRES   REMARKS
ROCKFORD       CLOUDY    45  42  89 CALM      30.15R
FREEPORT*      PTCLDY    42  40  93 CALM      30.15R
ROCHELLE*      CLOUDY    42  42  99 CALM      30.14R
DE KALB*       CLOUDY    49  44  85 NW3       30.15R
PERU*          CLOUDY    49  46  88 CALM      30.15R
$$

ILZ005-006-012>014-019>023-191400-
NORTHEAST ILLINOIS

CITY           SKY/WX    TMP DP  RH WIND       PRES   REMARKS
CHICAGO-OHARE  MOCLDY    53  43  68 NW5       30.13R
CHICAGO-MIDWAY MOCLDY    54  47  77 W5        30.13R
AURORA         PTCLDY    45  45 100 CALM      30.15R
LANSING*       CLEAR     46  46  98 CALM      30.14R
JOLIET*        CLEAR     48  47  97 CALM      30.14R
WAUKEGAN       CLOUDY    50  43  77 W3        30.12R
DUPAGE AIRPORT PTCLDY    47  47 100 CALM      30.13R
KANKAKEE*      CLEAR     49  46  86 CALM      30.15R
WHEELING       CLOUDY    52  47  83 CALM      30.14R
MORRIS*        CLEAR     48  46  90 CALM      30.13R
NORTHERLY ISL    N/A     56  46  69 W6          N/A
$$

LMZ740>746-191400-
SOUTHERN LAKE MICHIGAN

STATION/POSITION SKY/WX   TEMP    WIND        PRES    VSBY  WAVE
                          AIR SEA DIR/SP/G                  HT/PER
                          (F)     (DEG/KT/KT) (MB)    (MI)  (FT/S)
SOUTHERN BUOY              59 61  330/ 17/ 19 1018.2          3/ 5
WILMETTE HARBOR            57 57  300/  8/ 10   N/A           1/ 2
HARRISON CRIB              58     300/ 10/ 12   N/A
BURNHAM HARBOR             56     270/  4/  8   N/A
CALUMET HARBOR             54     220/  4/  5 1019.5
BURNS HARBOR               55     230/  7/  9 1020.7R
MICHIGAN CITY              54     190/  8/  9   N/A
MICHIGAN CITY 6N           56 57  250/ 12/ 14   N/A           2/ 4
ST. JOSEPH                 60 58  310/ 12/ 14 1020.1          3/ 5
$$

ILZ025>027-034>036-040-047-049-050-058-095>099-191400-
WEST-CENTRAL ILLINOIS

CITY           SKY/WX    TMP DP  RH WIND       PRES   REMARKS
QUINCY         CLEAR     52  46  80 S8        30.13R
GALESBURG*     CLOUDY    44  44 100 CALM      30.14R
MACOMB*        CLEAR     45  43  94 CALM      30.16R
JACKSONVILLE*  CLEAR     53  47  81 SW6       30.15R
PITTSFIELD*    CLEAR     53  48  83 CALM      30.15S
$$

ILZ028>032-037-038-041>044-048-051>054-059>061-191400-
CENTRAL ILLINOIS

CITY           SKY/WX    TMP DP  RH WIND       PRES   REMARKS
PONTIAC        CLEAR     50  49  99 CALM      30.15R
BLOOMINGTON    CLEAR     51  47  86 SW7       30.15R
DECATUR        CLEAR     52  48  86 SW6       30.15R
PEORIA         CLEAR     49  48  97 CALM      30.14R
LACON*         CLEAR     49  48  96 CALM      30.13R
LINCOLN*       CLEAR     46  46  97 CALM      30.15R
SPRINGFIELD    CLEAR     55  49  80 SW6       30.15R
TAYLORVILLE    CLEAR     50  48  90 S5        30.16R
$$

ILZ033-039-045-046-055>057-062-063-191400-
EAST-CENTRAL ILLINOIS

CITY           SKY/WX    TMP DP  RH WIND       PRES   REMARKS
CHAMPAIGN      CLEAR     50  45  83 SW3       30.16R
DANVILLE*      CLEAR     50  47  89 SW6       30.14R
RANTOUL*       CLEAR     52  49  90 SW5       30.15R
MATTOON        CLEAR     52  49  89 S8        30.16R
PARIS*         CLEAR     53  49  86 S6        30.17R
$$

ILZ079-100>102-191400-
SOUTHWEST ILLINOIS

CITY           SKY/WX    TMP DP  RH WIND       PRES   REMARKS
ALTON          CLEAR     54  50  87 CALM      30.18R
BELLEVILLE     CLEAR     49  46  88 CALM      30.21R
CAHOKIA*       CLEAR     48  47  96 CALM      30.17R
SPARTA*        CLEAR     55  47  75 SW5       30.20R
$$

ILZ064>066-069>071-074>076-080>082-084>086-088>090-092>094-191400-
SOUTH-CENTRAL ILLINOIS

CITY           SKY/WX    TMP DP  RH WIND       PRES   REMARKS
CARBONDALE     CLEAR     53  49  86 S6        30.21R
CAIRO*         CLEAR     49  47  93 S3        30.24R
EFFINGHAM*     CLEAR     50  49  97 CALM      30.19S
MARION         CLEAR     54  50  87 S6        30.22R
MT. VERNON     CLEAR     47  47 100 CALM      30.20R
CENTRALIA*     CLEAR     52  48  87 CALM      30.19R
SALEM*         CLEAR     53  48  82 S5        30.18S
METROPOLIS*    CLEAR     52  48  84 S3        30.25R
$$

ILZ067-068-072-073-078-083-087-091-191400-
SOUTHEAST ILLINOIS

CITY           SKY/WX    TMP DP  RH WIND       PRES   REMARKS
LAWRENCEVILLE  CLEAR     51  48  89 S7        30.20S
FLORA*         CLEAR     51  49  91 S5        30.19S
FAIRFIELD*     CLEAR     52  48  87 S3        30.19S
HARRISBURG*    CLEAR     49  47  90 CALM      30.22S
ROBINSON*      CLEAR     49  48  93 S5        30.20R
CARMI*         CLEAR     50  49  94 S5        30.21S
$$

ABBREVIATIONS USED IN REMARKS
   TC - TEMPERATURE IN CELSIUS
  WCI - WIND CHILL INDEX
   HX - HEAT INDEX
  VSB - VISIBILITY
$$





USA.gov is the U.S. government's official web portal to all federal, state and local government web resources and services.